Regional Weather Roundup
Issued by NWS

Home | Current Version | Previous Version | Graphics & Text | Print | Product List | Glossary On
Versions: 1 2 3 4 5 6 7 8 9 10 11 12 13 14 15 16 17 18 19 20 21 22 23 24 25 26 27 28 29 30 31 32 33 34 35 36 37 38 39 40 41 42 43 44 45 46 47 48 49 50
000
ASUS43 KDTX 240010
RWRMI
MICHIGAN HOURLY REGIONAL WEATHER ROUNDUP
NATIONAL WEATHER SERVICE DETROIT/PONTIAC MI
800 PM EDT TUE AUG 23 2016

NOTE: "FAIR" INDICATES FEW OR NO CLOUDS BELOW 12,000 FEET WITH NO
SIGNIFICANT WEATHER AND/OR OBSTRUCTION TO VISIBILITY.

MIZ047>049-052>055-059>063-066>070-074>076-081>083-240100-
SOUTHEAST LOWER MICHIGAN

CITY           SKY/WX    TMP DP  RH WIND       PRES   REMARKS
ADRIAN         CLEAR     74  63  68 S6        30.22R
6HR MIN TEMP:  74; 6HR MAX TEMP:  80;

ALMA           CLEAR     74  64  70 S9        30.18S
ANN ARBOR      CLEAR     75  60  59 S5        30.21R
BAD AXE        CLOUDY    74  59  60 SW6       30.19R
6HR MIN TEMP:  74; 6HR MAX TEMP:  80;

CARO           CLEAR     73  63  71 CALM      30.18S
DETROIT CITY   CLEAR     76  60  57 S8        30.20S
6HR MIN TEMP:  76; 6HR MAX TEMP:  81;

DETROIT        PTCLDY    77  60  55 SW7       30.21S
6HR MIN TEMP:  77; 6HR MAX TEMP:  81;

FLINT          PTCLDY    78  60  53 S6        30.19S
6HR MIN TEMP:  78; 6HR MAX TEMP:  83;

GROSSE ILE     CLEAR     76  63  63 S8        30.20S
6HR MIN TEMP:  76; 6HR MAX TEMP:  80;

HILLSDALE      CLEAR     73  60  63 CALM      30.22R
6HR MIN TEMP:  51; 6HR MAX TEMP:  84;

HOWELL         CLEAR     74  60  60 S3        30.20S
6HR MIN TEMP:  74; 6HR MAX TEMP:  80;


CITY           SKY/WX    TMP DP  RH WIND       PRES   REMARKS
JACKSON        CLEAR     75  59  57 S6        30.21S
6HR MIN TEMP:  75; 6HR MAX TEMP:  79;

LAMBERTVILLE   CLEAR     77  60  55 CALM      30.23R
6HR MIN TEMP:  77; 6HR MAX TEMP:  82;

LANSING        CLEAR     75  58  55 S8        30.20R
6HR MIN TEMP:  75; 6HR MAX TEMP:  80;

LAPEER         FAIR      73  61  64 S5        30.21R
MASON          CLEAR     74  60  60 SW5       30.21R
MONROE         CLEAR     75  63  66 SW10      30.20S
6HR MIN TEMP:  75; 6HR MAX TEMP:  82;

MT. CLEMENS    PTCLDY    74  62  66 S10       30.18S
6HR MIN TEMP:  74; 6HR MAX TEMP:  83;

PONTIAC        PTCLDY    76  58  53 SW5       30.20S
6HR MIN TEMP:  76; 6HR MAX TEMP:  79;

PORT HOPE        N/A     76  60  57 CALM      30.16
6HR MIN TEMP:  76; 6HR MAX TEMP:  81;

PORT HURON     CLEAR     70  63  78 CALM      30.21R
TRI CITIES     PTCLDY    75  62  64 SW6       30.18S
6HR MIN TEMP:  75; 6HR MAX TEMP:  81;

MIDLAND        FAIR      74  61  62 S3        30.17R
6HR MIN TEMP:  74; 6HR MAX TEMP:  81;

TROY           CLEAR     79  55  43 SW6       30.22S
SAGINAW HB     PTCLDY    75  61  60 SW5       30.17S
$$
MIZ043>046-050>051-056>058-064>065-071>073-077>080-240100-
SOUTHWEST LOWER MICHIGAN

CITY           SKY/WX    TMP DP  RH WIND       PRES   REMARKS
BATTLE CREEK   CLEAR     72  61  68 S7        30.20S
6HR MIN TEMP:  72; 6HR MAX TEMP:  77;

BENTON HARBOR  CLEAR     76  60  57 S5        30.16S
6HR MIN TEMP:  76; 6HR MAX TEMP:  81;

BIG RAPIDS     CLEAR     74  59  58 SW3       30.17S
6HR MIN TEMP:  74; 6HR MAX TEMP:  80;

COLDWATER      CLEAR     73  59  59 CALM      30.21S
6HR MIN TEMP:  73; 6HR MAX TEMP:  79;

FREMONT        FAIR      73  58  58 SW7       30.16F
HOLLAND        CLEAR     75  63  66 S5        30.17F
6HR MIN TEMP:  75; 6HR MAX TEMP:  79;

GRAND RAPIDS   PTCLDY    76  58  53 S8        30.18S
6HR MIN TEMP:  76; 6HR MAX TEMP:  80;

IONIA          FAIR      74  58  57 S5        30.18R
6HR MIN TEMP:  74; 6HR MAX TEMP:  79;

KALAMAZOO      CLEAR     75  59  57 S7        30.19S
6HR MIN TEMP:  75; 6HR MAX TEMP:  80;

LUDINGTON      CLEAR     74  61  65 S9        30.12F
6HR MIN TEMP:  74; 6HR MAX TEMP:  79;

MARSHALL       CLEAR     75  59  57 SW3       30.20S
MOUNT PLEASANT CLEAR     76  59  55 S6        30.17R
6HR MIN TEMP:  76; 6HR MAX TEMP:  82;

MUSKEGON       MOCLDY    75  63  66 S7        30.15F
6HR MIN TEMP:  75; 6HR MAX TEMP:  80;

SOUTH HAVEN    CLEAR     76  62  60 S3        30.17S
$$
MIZ016>042-240100-
NORTHERN LOWER MICHIGAN

CITY           SKY/WX    TMP DP  RH WIND       PRES   REMARKS
ALPENA         CLOUDY    81  58  45 SW7       30.13R
6HR MIN TEMP:  81; 6HR MAX TEMP:  87;

BEAVER ISLAND  CLEAR     73  61  65 SW9G17    30.10F
6HR MIN TEMP:  73; 6HR MAX TEMP:  78;

BELLAIRE       PTCLDY    77  59  53 SW5       30.12S
6HR MIN TEMP:  77; 6HR MAX TEMP:  83;

CADILLAC       CLEAR     71  57  62 S10       30.17R
CHARLEVOIX     CLOUDY    76  61  60 S8        30.14S
6HR MIN TEMP:  76; 6HR MAX TEMP:  82;

FRANKFORT      CLEAR     75  59  57 S6        30.11S
GAYLORD        CLEAR     75  58  55 SW9       30.15R
6HR MIN TEMP:  75; 6HR MAX TEMP:  83;

GRAYLING       CLEAR     75  59  57 SW3       30.17R
HARBOR SPRINGS CLEAR     74  64  69 W6        30.11S
HOUGHTON LAKE  PTCLDY    74  58  57 SW8       30.18R
6HR MIN TEMP:  74; 6HR MAX TEMP:  81;

MANISTEE       CLEAR     75  59  57 S8        30.12S
OSCODA         CLEAR     75  61  61 S8        30.15R
6HR MIN TEMP:  75; 6HR MAX TEMP:  84;

PELLSTON       CLEAR     74  62  66 W6        30.11S
6HR MIN TEMP:  74; 6HR MAX TEMP:  83;

ROGERS CITY    CLEAR     75  62  65 CALM      30.13R
TRAVERSE CITY  MOCLDY    77  58  51 VRB6      30.11R
6HR MIN TEMP:  77; 6HR MAX TEMP:  83;

$$
MIZ007>008-015-240100-
EASTERN UPPER MICHIGAN

CITY           SKY/WX    TMP DP  RH WIND       PRES   REMARKS
KINROSS        CLEAR     75  57  53 SW7       30.10S
6HR MIN TEMP:  75; 6HR MAX TEMP:  80;

MACKINAC ISLAN CLEAR     72  63  74 W10G17    30.10F
6HR MIN TEMP:  72; 6HR MAX TEMP:  77;

NEWBERRY       CLEAR     71  63  75 S17G25    30.07F
S. S. MARIE    CLEAR     76  58  53 SW9G20    30.09R
6HR MIN TEMP:  76; 6HR MAX TEMP:  82;

MUNISING         N/A     75  64  68 S14G22    30.00
6HR MIN TEMP:  75; 6HR MAX TEMP:  84;

$$
MIZ004>006-011>014-085-240100-
CENTRAL UPPER MICHIGAN

CITY           SKY/WX    TMP DP  RH WIND       PRES   REMARKS
MANISTIQUE     PTCLDY    67  65  91 S6        30.07F
6HR MIN TEMP:  67; 6HR MAX TEMP:  74;

ESCANABA       CLEAR     72  66  81 S9        30.05S
6HR MIN TEMP:  72; 6HR MAX TEMP:  79;

MENOMINEE      CLEAR    N/A N/A N/A S10       30.06R
SAWYER-GWINN   CLEAR     75  61  60 SW17G23   30.03S
$$
MIZ001>003-009>011-084-240100-
WESTERN UPPER MICHIGAN

CITY           SKY/WX    TMP DP  RH WIND       PRES   REMARKS
IRON MOUNTAIN  PTCLDY    75  62  64 S10       30.03S
6HR MIN TEMP:  75; 6HR MAX TEMP:  82;

HOUGHTON       CLEAR     79  61  53 S8        29.95R
6HR MIN TEMP:  79; 6HR MAX TEMP:  86;

COPPER HARBOR    N/A     78  62  57 W8        29.92R
6HR MIN TEMP:  78; 6HR MAX TEMP:  83;

IRONWOOD       MOCLDY    77  63  61 S12       29.96S
6HR MIN TEMP:  77; 6HR MAX TEMP:  84; 6HR PCP:  0.01;

$$

ABBREVIATIONS USED IN REMARKS
   TC - TEMPERATURE IN CELSIUS
  WCI - WIND CHILL INDEX
   HX - HEAT INDEX
  VSB - VISIBILITY





USA.gov is the U.S. government's official web portal to all federal, state and local government web resources and services.